Starlink 31222

operational
NORAD ID: 58828 Int'l Des: 2024-017 Owner: SPXS Country: US Constellation: starlink
LEOCIRCULAR

About Starlink 31222

Description loading...

Live Position

Loading 3D Globe...

Upcoming Passes

Altitude History

Altitude vs Time

uPlot chart will show altitude changes over time

Two-Line Element Set

1 58828U 24017C 25258.40200103 .00000077 00000-0 14734-4 0 9994
2 58828 53.1589 298.1768 0001363 79.7741 280.3413 15.30198607 93220
Epoch: Sep 15, 2025 • Age: 17 hours

Current Status

Altitude 480.3 km
Velocity 7.63 km/s
Sub-Earth Point -17.07°S, 99.92°E
Launch Date Jan 24, 2024
Age 1.6 years
Type internet

Technical Details

Classification Payload
Mass 730.00 kg
Dry Mass 700.00 kg
Total Mass 730.00 kg
Length 0.30 m
Diameter 4.10 m
Span 29.00 m
Shape Box + pan
Manufacturer SPXS
Bus Type Starlink V2M
Phase Status In Orbit
Owner/State SPXS/US

Large Constellations

Loading constellations...